KD7MPG-3 Weather Reports


Display with metric or nautical units.
time (UTC)temp
F
wind
direction
speed
MPH
gust
MPH
rain 1hr
in
rain 24hr
in
rain mn
in
humidity
%
barometer
mb
20260502164032 55 292 1.0 6.0 0.00 0.00 0.00 84 1024.8
20260502163533 55 51 3.0 6.0 0.00 0.00 0.00 83 1025.0
20260502163028 55 275 2.0 6.0 0.00 0.00 0.00 84 1024.9
20260502162527 54 252 1.0 6.0 0.00 0.00 0.00 84 1024.8
20260502162029 54 305 2.0 6.0 0.00 0.00 0.00 85 1024.7
20260502161529 53 10 3.0 6.0 0.00 0.00 0.00 85 1025.0
20260502161026 53 280 2.0 4.0 0.00 0.00 0.00 84 1024.9
20260502160527 53 271 2.0 4.0 0.00 0.00 0.00 85 1024.9
20260502152014 51 343 1.0 4.0 0.00 0.00 0.00 88 1024.4
20260502151513 51 288 1.0 3.0 0.00 0.00 0.00 88 1024.6
20260502151014 51 294 1.0 3.0 0.00 0.00 0.00 88 1024.5
20260502150515 51 331 1.0 4.0 0.00 0.00 0.00 87 1024.5
20260502130451 51 285 2.0 4.0 0.00 0.00 0.00 87 1024.6
20260502123445 51 0 2.0 5.0 0.00 0.00 0.00 87 1024.5
20260502122941 51 336 1.0 4.0 0.00 0.00 0.00 88 1024.7
20260502122441 51 336 1.0 3.0 0.00 0.00 0.00 88 1024.5
20260502121943 51 297 1.0 3.0 0.00 0.00 0.00 88 1024.7
20260502121439 51 319 2.0 4.0 0.00 0.00 0.00 88 1024.6
20260502120938 51 278 2.0 4.0 0.00 0.00 0.00 88 1024.6
20260502120439 51 289 2.0 6.0 0.00 0.00 0.00 88 1024.7
20260502115435 50 277 2.0 6.0 0.00 0.00 0.00 88 1024.6
20260502114937 50 266 1.0 4.0 0.00 0.00 0.00 88 1024.6
20260502114436 50 277 1.0 3.0 0.00 0.00 0.00 88 1024.7
20260502113936 50 278 2.0 5.0 0.00 0.00 0.00 89 1024.7
20260502113437 50 355 1.0 5.0 0.00 0.00 0.00 89 1024.6
20260502112935 50 305 1.0 4.0 0.00 0.00 0.00 89 1024.6
20260502112435 50 298 1.0 3.0 0.00 0.00 0.00 89 1024.6
20260502111937 50 284 1.0 2.0 0.00 0.00 0.00 89 1024.6
20260502111431 50 279 1.0 3.0 0.00 0.00 0.00 88 1024.7
20260502110932 50 279 1.0 3.0 0.00 0.00 0.00 89 1024.8
20260502110433 50 300 1.0 3.0 0.00 0.00 0.00 88 1024.7
20260502105931 50 12 1.0 4.0 0.00 0.00 0.00 88 1024.6
20260502105431 50 12 1.0 4.0 0.00 0.00 0.00 88 1024.4
20260502104932 50 34 1.0 4.0 0.00 0.00 0.00 88 1024.5
20260502104428 50 344 1.0 3.0 0.00 0.00 0.00 88 1024.6
20260502103928 50 309 2.0 4.0 0.00 0.00 0.00 88 1024.8
20260502103429 50 307 2.0 4.0 0.00 0.00 0.00 88 1024.6
20260502102928 51 5 2.0 5.0 0.00 0.00 0.00 88 1024.5
20260502102427 51 345 2.0 5.0 0.00 0.00 0.00 88 1024.5
20260502101929 51 355 2.0 5.0 0.00 0.00 0.00 88 1024.5
20260502101428 51 292 1.0 3.0 0.00 0.00 0.00 87 1024.5
20260502100927 51 323 2.0 6.0 0.00 0.00 0.00 87 1024.5
20260502100427 51 315 2.0 7.0 0.00 0.00 0.00 87 1024.5
20260502091427 53 276 3.0 6.0 0.00 0.00 0.00 85 1024.7
20260502090923 53 302 2.0 6.0 0.00 0.00 0.00 84 1024.7
20260502090421 53 274 2.0 5.0 0.00 0.00 0.00 84 1024.8
20260502071351 54 304 1.0 3.0 0.00 0.00 0.00 83 1025.9
20260502070851 54 304 1.0 3.0 0.00 0.00 0.00 83 1025.8
20260502070352 55 308 1.0 4.0 0.00 0.00 0.00 83 1025.7
20260502065850 55 319 1.0 4.0 0.00 0.00 0.00 83 1025.6
20260502065347 55 333 1.0 3.0 0.00 0.00 0.00 83 1025.5
20260502064849 55 274 1.0 3.0 0.00 0.00 0.00 83 1025.5
20260502064345 55 337 1.0 4.0 0.00 0.00 0.00 83 1025.7
20260502063843 55 273 1.0 4.0 0.00 0.00 0.00 83 1025.6
20260502063344 55 333 1.0 4.0 0.00 0.00 0.00 83 1025.5
20260502062838 55 298 1.0 6.0 0.00 0.00 0.00 83 1025.5
20260502062338 55 261 1.0 6.0 0.00 0.00 0.00 83 1025.6
20260502061837 55 288 2.0 6.0 0.00 0.00 0.00 83 1025.6
20260502061337 55 298 2.0 6.0 0.00 0.00 0.00 83 1025.6
20260502060838 55 284 2.0 5.0 0.00 0.00 0.00 83 1025.6
20260502060338 55 320 1.0 4.0 0.00 0.00 0.00 83 1025.5
20260502055833 55 281 0.0 2.0 0.00 0.00 0.00 83 1025.5
20260502055331 55 282 0.0 2.0 0.00 0.00 0.00 83 1025.6
20260502054832 55 281 1.0 2.0 0.00 0.00 0.00 83 1025.4
20260502054331 55 281 1.0 2.0 0.00 0.00 0.00 83 1025.3
20260502053831 55 281 1.0 2.0 0.00 0.00 0.00 83 1025.4
20260502053332 55 281 1.0 4.0 0.00 0.00 0.00 83 1025.3
20260502052827 55 0 1.0 4.0 0.00 0.00 0.00 82 1025.3
20260502052327 55 289 2.0 4.0 0.00 0.00 0.00 83 1025.1
20260502051829 56 273 1.0 4.0 0.00 0.00 0.00 82 1025.1
20260502051328 56 319 2.0 3.0 0.00 0.00 0.00 82 1025.1
20260502050825 56 272 1.0 3.0 0.00 0.00 0.00 82 1025.1
20260502050325 56 350 0.0 3.0 0.00 0.00 0.00 82 1025.0
20260502045822 56 304 0.0 2.0 0.00 0.00 0.00 82 1025.0
20260502045321 56 284 1.0 3.0 0.00 0.00 0.00 82 1024.9
20260502044822 56 283 1.0 3.0 0.00 0.00 0.00 82 1024.9
20260502044321 56 288 2.0 6.0 0.00 0.00 0.00 81 1024.9
20260502043819 56 264 2.0 6.0 0.00 0.00 0.00 81 1024.9
20260502043320 56 281 2.0 8.0 0.00 0.00 0.00 81 1024.9
20260502042815 56 273 3.0 8.0 0.00 0.00 0.00 81 1024.8
20260502042312 57 267 2.0 7.0 0.00 0.00 0.00 81 1024.8
20260502041813 57 284 2.0 6.0 0.00 0.00 0.00 81 1024.6
20260502041313 57 251 3.0 7.0 0.00 0.00 0.00 81 1024.6
20260502040813 57 299 3.0 7.0 0.00 0.00 0.00 81 1024.6
20260502040314 57 249 3.0 7.0 0.00 0.00 0.00 81 1024.5
20260502035808 57 287 4.0 8.0 0.00 0.00 0.00 81 1024.4
20260502035307 57 267 4.0 9.0 0.00 0.00 0.00 81 1024.3
20260502034807 57 296 4.0 9.0 0.00 0.00 0.00 81 1024.3
20260502034307 57 282 3.0 9.0 0.00 0.00 0.00 81 1024.2
20260502033807 57 265 4.0 9.0 0.00 0.00 0.00 81 1024.2
20260502033308 57 239 4.0 9.0 0.00 0.00 0.00 80 1024.2
20260502032802 57 257 4.0 12.0 0.00 0.00 0.00 80 1024.1
20260502032301 57 258 4.0 12.0 0.00 0.00 0.00 79 1024.0
20260502031800 58 234 4.0 11.0 0.00 0.00 0.00 79 1023.9
20260502031301 58 0 4.0 9.0 0.00 0.00 0.00 78 1023.9
20260502030801 58 0 4.0 10.0 0.00 0.00 0.00 77 1023.9
20260502030301 59 296 4.0 10.0 0.00 0.00 0.00 77 1023.8
20260502025758 59 299 3.0 10.0 0.00 0.00 0.00 76 1023.7
20260502025257 60 326 3.0 8.0 0.00 0.00 0.00 76 1023.6
20260502024755 60 267 3.0 9.0 0.00 0.00 0.00 75 1023.6
20260502024255 60 291 3.0 9.0 0.00 0.00 0.00 75 1023.5
20260502023755 61 269 3.0 8.0 0.00 0.00 0.00 74 1023.5
20260502023301 61 304 3.0 7.0 0.00 0.00 0.00 74 1023.4
20260502022753 61 272 2.0 7.0 0.00 0.00 0.00 74 1023.6
20260502022250 61 268 3.0 11.0 0.00 0.00 0.00 73 1023.5
20260502021749 62 0 4.0 11.0 0.00 0.00 0.00 73 1023.4
20260502021249 62 355 3.0 8.0 0.00 0.00 0.00 73 1023.4
20260502020749 62 270 2.0 7.0 0.00 0.00 0.00 72 1023.3
20260502020250 62 254 3.0 9.0 0.00 0.00 0.00 73 1023.3
20260502015744 63 225 4.0 9.0 0.00 0.00 0.00 72 1023.3
20260502015243 63 243 4.0 12.0 0.00 0.00 0.00 71 1023.3
20260502014743 64 203 5.0 12.0 0.00 0.00 0.00 70 1023.2
20260502014243 65 229 4.0 12.0 0.00 0.00 0.00 70 1023.2
20260502013743 65 0 3.0 12.0 0.00 0.00 0.00 69 1023.1
20260502013242 66 273 4.0 8.0 0.00 0.00 0.00 69 1023.2
20260502012736 66 43 3.0 8.0 0.00 0.00 0.00 68 1023.1
20260502012237 67 310 4.0 9.0 0.00 0.00 0.00 68 1023.2
20260502011737 67 263 4.0 11.0 0.00 0.00 0.00 67 1023.3
20260502011236 67 284 4.0 11.0 0.00 0.00 0.00 67 1023.3
20260502010737 67 268 4.0 10.0 0.00 0.00 0.00 67 1023.3
20260502010238 67 288 3.0 9.0 0.00 0.00 0.00 68 1023.2
20260502005732 67 340 3.0 9.0 0.00 0.00 0.00 68 1023.2
20260502005231 68 265 4.0 8.0 0.00 0.00 0.00 66 1023.1
20260502004731 68 265 4.0 8.0 0.00 0.00 0.00 66 1023.2
20260502004231 69 0 5.0 11.0 0.00 0.00 0.00 65 1023.1
20260502003731 69 267 6.0 11.0 0.00 0.00 0.00 63 1023.2
20260502003232 70 311 5.0 11.0 0.00 0.00 0.00 63 1023.1
20260502002733 70 346 4.0 11.0 0.00 0.00 0.00 63 1023.1
20260502002227 71 291 4.0 10.0 0.00 0.00 0.00 63 1023.1
20260502001725 71 265 5.0 11.0 0.00 0.00 0.00 62 1023.1
20260502001224 72 278 4.0 11.0 0.00 0.00 0.00 61 1022.9
20260502000724 73 0 4.0 11.0 0.00 0.00 0.00 61 1023.0
20260502000226 73 5 4.0 9.0 0.00 0.00 0.00 61 1023.0
20260501235720 73 321 4.0 11.0 0.00 0.00 0.00 61 1023.0
20260501235221 73 298 5.0 11.0 0.00 0.00 0.00 60 1023.1
20260501234722 73 292 5.0 10.0 0.00 0.00 0.00 60 1023.2
20260501234221 73 263 5.0 12.0 0.00 0.00 0.00 59 1023.2
20260501233719 74 259 5.0 12.0 0.00 0.00 0.00 59 1023.1
20260501233220 74 324 5.0 11.0 0.00 0.00 0.00 60 1023.2
20260501232717 73 330 4.0 11.0 0.00 0.00 0.00 61 1023.3
20260501232216 73 250 3.0 8.0 0.00 0.00 0.00 62 1023.2
20260501231709 73 346 4.0 8.0 0.00 0.00 0.00 62 1023.2
20260501231204 73 273 4.0 8.0 0.00 0.00 0.00 61 1023.3
20260501230702 74 275 3.0 8.0 0.00 0.00 0.00 60 1023.4
20260501230203 75 255 2.0 8.0 0.00 0.00 0.00 60 1023.3
20260501225702 75 175 1.0 5.0 0.00 0.00 0.00 61 1023.4
20260501225203 75 241 2.0 7.0 0.00 0.00 0.00 59 1023.3
20260501224702 75 96 2.0 7.0 0.00 0.00 0.00 63 1023.5
20260501224204 74 250 2.0 7.0 0.00 0.00 0.00 61 1023.5
20260501223658 74 316 3.0 7.0 0.00 0.00 0.00 60 1023.5
20260501223159 74 257 3.0 7.0 0.00 0.00 0.00 59 1023.5
20260501222659 74 240 2.0 5.0 0.00 0.00 0.00 61 1023.5
20260501222158 74 93 2.0 7.0 0.00 0.00 0.00 59 1023.6
20260501221659 73 324 2.0 7.0 0.00 0.00 0.00 59 1023.6
20260501221200 73 234 2.0 6.0 0.00 0.00 0.00 59 1023.7
20260501220654 73 263 3.0 7.0 0.00 0.00 0.00 57 1023.7
20260501220155 73 255 3.0 7.0 0.00 0.00 0.00 58 1023.8
20260501215655 73 240 3.0 6.0 0.00 0.00 0.00 58 1023.8
20260501215154 73 281 2.0 6.0 0.00 0.00 0.00 59 1023.8
20260501214655 73 305 2.0 8.0 0.00 0.00 0.00 59 1024.0
20260501214156 73 88 2.0 8.0 0.00 0.00 0.00 61 1024.0
20260501213655 72 223 2.0 6.0 0.00 0.00 0.00 62 1024.1
20260501213154 72 194 2.0 5.0 0.00 0.00 0.00 61 1024.1
20260501212654 72 128 2.0 5.0 0.00 0.00 0.00 64 1024.2
20260501212156 72 230 2.0 5.0 0.00 0.00 0.00 64 1024.2
20260501211653 72 209 2.0 4.0 0.00 0.00 0.00 63 1024.3
20260501211153 71 269 2.0 6.0 0.00 0.00 0.00 62 1024.3
20260501210653 72 205 2.0 6.0 0.00 0.00 0.00 62 1024.3
20260501210153 72 254 1.0 5.0 0.00 0.00 0.00 63 1024.4
20260501205650 72 254 1.0 3.0 0.00 0.00 0.00 64 1024.4
20260501205151 71 88 1.0 6.0 0.00 0.00 0.00 65 1024.4
20260501204646 71 132 2.0 6.0 0.00 0.00 0.00 69 1024.5
20260501204146 70 128 1.0 4.0 0.00 0.00 0.00 67 1024.6
20260501203647 69 148 1.0 5.0 0.00 0.00 0.00 67 1024.7
20260501203144 69 265 2.0 7.0 0.00 0.00 0.00 67 1024.7
20260501202642 70 242 2.0 6.0 0.00 0.00 0.00 67 1024.8
20260501202143 69 168 1.0 5.0 0.00 0.00 0.00 69 1024.8
20260501201638 69 310 1.0 3.0 0.00 0.00 0.00 71 1024.9
20260501201138 68 53 1.0 7.0 0.00 0.00 0.00 71 1024.9
20260501200636 68 311 2.0 7.0 0.00 0.00 0.00 69 1024.9
20260501200136 67 194 2.0 9.0 0.00 0.00 0.00 69 1025.0
20260501195636 67 274 2.0 9.0 0.00 0.00 0.00 69 1025.1
20260501195136 67 257 2.0 5.0 0.00 0.00 0.00 69 1025.3
20260501194631 67 286 3.0 9.0 0.00 0.00 0.00 68 1025.2
20260501194135 67 272 3.0 9.0 0.00 0.00 0.00 69 1025.3
20260501193631 67 105 2.0 7.0 0.00 0.00 0.00 69 1025.3
20260501193135 67 208 3.0 7.0 0.00 0.00 0.00 68 1025.4
20260501192630 67 269 3.0 7.0 0.00 0.00 0.00 69 1025.4
20260501192131 67 225 3.0 7.0 0.00 0.00 0.00 71 1025.4
20260501191628 66 298 3.0 7.0 0.00 0.00 0.00 71 1025.4
20260501191126 66 260 2.0 6.0 0.00 0.00 0.00 72 1025.4
20260501190628 66 276 2.0 6.0 0.00 0.00 0.00 74 1025.4
20260501190126 65 243 2.0 6.0 0.00 0.00 0.00 73 1025.4
20260501185624 65 270 2.0 6.0 0.00 0.00 0.00 72 1025.4
20260501185125 65 24 2.0 7.0 0.00 0.00 0.00 75 1025.5
20260501184620 64 263 3.0 7.0 0.00 0.00 0.00 73 1025.5
20260501184120 64 311 3.0 7.0 0.00 0.00 0.00 74 1025.6
20260501183618 64 279 2.0 7.0 0.00 0.00 0.00 74 1025.5
20260501183118 64 277 2.0 7.0 0.00 0.00 0.00 75 1025.5
20260501182618 63 198 3.0 7.0 0.00 0.00 0.00 76 1025.5
20260501182118 63 200 2.0 6.0 0.00 0.00 0.00 76 1025.5
20260501181617 63 215 2.0 7.0 0.00 0.00 0.00 76 1025.5
20260501181114 63 315 2.0 7.0 0.00 0.00 0.00 77 1025.6
20260501180615 63 167 2.0 6.0 0.00 0.00 0.00 78 1025.5
20260501180116 62 140 2.0 5.0 0.00 0.00 0.00 77 1025.6